Showing default

SBIRS GEO 3 (USA 282), 43162

Orbit data source: Space-Track

SBIRS GEO 3 (USA 282), 43162 is a payload satellite owned by USAF AFSPC (US) in GEO that was launched on Sat, 20 Jan 2018 UTC via an ATLAS V 411 launch vehicle from the Air Force Eastern Test Range (AFETR). Payload-class satellites include a variety of spacecraft equipped with specific instruments for various scientific and technological missions. These include communications satellites like Starlink; space stations such as the ISS; scientific satellites like the Hubble; Earth observation satellites from companies like Planet Labs, Umbra, and HawkEye 360; GPS; miniature CubeSats for education and research; and military/defense satellites.

Loading next visibility...
Identifier
43162, 2018-009A
Orbit
GEO
Country
Flag of USUS
Related business
Manufacturer
LMSS
Mission
Operational Defense Early Warn
Bus & Motor
A2100, LEROS 1C?
Mass
~4,500 kg wet, ~2,500 kg dry
Launch date (UTC)
2018-01-20 (8 years ago)
Launch vehicle
ATLAS V 411
Launch site
Air Force Eastern Test Range (AFETR)
Object type
Payload
Rocket body
Debris
Shape & HBR
Box + 2 Pan, 12.5 m
Radar Cross Section
33.213 m², Large (>1 m²)

Expand to show TLE details & history
Last TLE update: 13 hours ago

TLE from 13 hours ago
0 SBIRS GEO 3 (USA 282)
1 43162U 18009A   26071.75410375  .00000130  00000-0  00000-0 0  9996
2 43162   2.1259   7.3101 0002225 349.6794 285.4736  1.00273129 29878
Epoch: 2026-03-12T18:05Z
TLE epoch observation values (Epoch: 2026-03-12T18:05:54.564Z)
Latitude
-2.10521°
Longitude
-159.41772°
Altitude
35,783.484 km
Speed
3.075 km/s
True Right ascension
18h 49m 50s
True Declination
-2° 06' 11"
Sunlit
Object was in daylight at epoch
Visualization orbit readout
Latitude
Unknown
Longitude
Unknown
Altitude
Unknown
Speed
Unknown
Apparent Right ascension
Unknown
Apparent Declination
Unknown
Sunlit
N/A
Visualization observer readout
Local Sidereal Time
11:54:15
Azimuth
Unknown
Elevation
Unknown
Doppler factor
Unknown
Orbital elements
Apogee altitude
35,796.668 km
Perigee altitude
35,777.905 km
Semi-major axis
42,165.423 km
Eccentricity
0.00022
Inclination
2.1259°
RAAN
7.3101°
Arg. of periapsis
349.6794°
True anomaly
285.44903°
Mean anomaly
285.4736°
Eccentric anomaly
285.46131°
Mean motion
0.25067 °/min
Orbital period
1,436.13 mins
BSTAR
0
Loading maneuver chart data...
Computing Atmospheric mass density...
Loading historical data...
Loading historical data...
Loading historical data...
Loading historical data...
Loading historical data...
Loading historical data...
Loading historical data...
Other satellites on launch #9 in the year 2018 (2018-01-20 UTC)

Documentation

Showing up to 5 results
|